Temperature
23 22 21 22 24 25 28 29 29 29 29 28 28 27 26 25 24 22 21 21 21 20 20 20 20 19 19 19 19 19 19 19 19 19 19 19 19 19 19 19 19 19 19 19 19 19 19 18 18
23 22 22 24 25 27 28 29 29 29 29 28 28 27 26 25 23 22 21 21 21 20 20 20 20 19 19 19 19 19 19 19 19 19 19 19 19 19 19 19 19 19 19 19 19 19 18 18 18
23 23 24 25 28 28 28 29 29 30 29 29 28 26 25 24 23 22 21 21 21 20 20 20 20 19 19 19 19 19 19 19 19 19 19 19 19 19 19 19 19 19 18 18 18 18 18 18 18
23 25 26 28 29 30 30 30 30 30 29 29 28 26 24 23 23 22 22 21 21 20 20 20 20 19 19 19 19 19 19 19 19 19 19 19 19 19 19 19 19 19 18 18 18 18 18 18 18
24 26 26 28 30 31 31 31 30 30 29 29 27 26 24 23 23 22 22 21 21 20 20 20 20 20 19 19 19 19 19 19 19 19 19 19 19 19 19 19 19 18 18 18 18 18 18 18 18
26 27 28 29 30 31 31 31 31 30 29 28 27 26 24 23 23 22 22 21 21 20 20 20 20 20 19 19 19 19 19 19 19 19 19 19 19 19 19 19 19 18 18 18 18 18 18 18 18
27 28 29 30 30 30 31 31 31 30 29 29 28 26 24 23 23 22 22 21 21 20 20 20 20 20 19 20 20 20 19 19 19 19 19 19 19 19 19 19 19 19 18 18 18 18 18 18 18
29 30 30 30 30 30 32 31 30 30 29 28 28 26 24 23 23 22 22 21 21 20 20 20 20 19 19 19 19 19 19 19 19 19 19 19 19 19 19 19 19 19 19 18 18 18 18 18 18
30 30 30 31 30 31 32 31 31 30 29 28 27 26 24 23 23 23 22 21 21 21 21 20 20 20 20 19 19 19 19 19 19 19 19 19 19 19 19 19 19 19 19 19 19 19 18 18 18
31 30 31 32 32 32 32 32 31 30 29 28 26 25 24 23 23 23 22 22 21 21 21 21 20 20 20 19 19 19 19 19 19 19 19 19 19 19 18 19 19 19 19 19 18 18 18 18 18
32 32 33 33 32 32 32 32 31 31 29 28 26 25 24 24 23 23 22 22 21 21 21 21 20 20 20 20 20 19 19 19 19 19 19 19 19 19 19 19 19 19 19 19 18 18 18 18 18
33 33 33 33 33 32 32 32 31 31 29 28 27 26 25 24 24 23 23 22 21 21 21 20 20 20 20 20 20 20 19 19 19 19 19 19 19 19 19 19 19 19 19 19 19 18 18 18 18
33 33 33 33 33 32 32 32 31 30 29 28 27 26 25 25 24 23 23 22 22 21 21 20 20 20 20 20 20 20 20 19 19 19 19 19 19 19 19 19 19 19 19 19 18 18 18 18 18
34 33 33 33 33 33 32 32 31 30 29 28 27 27 26 25 24 24 23 22 22 21 21 20 20 20 19 19 20 20 20 20 19 19 19 19 19 19 19 19 19 19 19 19 19 19 18 18 18
33 33 33 34 33 33 32 31 31 30 29 28 28 27 26 25 24 24 23 22 22 21 20 20 20 20 20 19 20 20 20 20 19 19 19 19 19 19 19 19 19 19 19 19 19 19 18 18 18
33 32 32 33 34 33 32 30 31 30 30 29 28 27 26 25 25 24 23 22 22 21 20 20 20 20 20 20 20 20 20 20 19 19 19 19 19 19 19 19 19 19 19 19 19 19 18 18 18
31 32 32 33 34 34 32 31 31 31 30 29 28 28 27 26 25 24 23 22 21 21 21 20 20 20 20 20 20 20 20 20 19 19 19 19 19 19 19 19 19 19 19 19 19 18 19 19 18
31 32 32 32 34 33 32 32 32 31 31 30 29 28 27 26 25 24 23 22 21 21 20 20 20 20 20 20 20 20 19 19 19 19 19 19 19 19 19 19 19 19 19 19 19 19 19 19 18
33 32 32 33 34 34 33 32 32 32 31 30 29 28 27 26 25 24 23 23 22 21 20 20 20 20 20 20 20 19 19 19 19 19 19 19 19 19 19 19 19 19 19 19 19 19 19 19 19
33 33 33 34 34 34 32 32 33 32 31 30 30 28 28 27 26 25 24 23 22 21 20 20 20 20 20 20 20 20 19 19 19 19 19 19 19 19 19 19 19 19 19 19 19 19 19 19 19
33 33 33 33 33 34 32 31 32 32 32 31 30 29 28 27 26 25 24 23 22 21 21 21 20 20 20 20 19 20 20 19 19 19 19 19 19 19 19 19 19 19 19 19 19 19 19 19 19
33 34 34 33 32 32 31 30 31 32 31 31 31 30 29 28 27 25 24 23 23 22 21 21 20 20 20 20 20 20 20 19 19 19 19 19 19 19 19 19 19 19 19 19 19 19 19 19 19
34 34 34 33 32 32 32 31 31 32 31 31 31 31 30 28 27 26 25 24 23 22 22 21 21 20 20 20 20 20 20 20 20 19 19 19 19 19 19 19 19 19 19 19 19 19 18 19 19
35 34 33 33 32 30 32 32 31 32 32 32 31 31 30 29 28 26 25 24 23 23 22 21 21 21 20 20 20 20 20 20 20 20 19 19 19 19 19 19 19 19 19 19 18 18 18 18 19
34 32 30 30 29 30 32 32 32 33 33 33 32 31 30 29 28 27 25 24 24 23 22 22 21 21 21 20 20 20 20 20 20 20 19 19 19 19 19 19 19 19 19 18 18 18 18 18 18
33 32 30 28 28 30 32 31 32 34 34 33 32 31 30 29 28 27 26 25 24 23 23 22 21 21 21 20 20 20 20 20 20 20 19 19 19 19 19 19 19 18 18 18 18 18 18 18 18
33 32 32 30 29 29 30 31 32 34 34 33 32 30 30 29 28 27 26 25 24 24 23 22 22 21 21 21 20 20 20 20 20 20 19 19 19 19 19 19 19 19 18 18 18 18 18 18 18
34 33 32 30 28 28 29 30 31 31 32 32 31 30 29 29 28 27 26 25 24 24 23 22 22 21 21 21 21 20 20 20 20 20 19 19 19 19 19 19 19 18 18 18 18 18 18 17 17
33 33 32 31 30 29 28 30 32 31 31 31 31 30 29 28 28 27 26 25 25 24 23 22 22 21 21 21 21 20 20 20 20 20 19 19 19 19 19 19 18 18 18 18 17 17 17 17 17
33 33 32 31 29 29 29 30 33 32 32 31 30 29 29 28 28 27 26 25 25 24 23 23 22 21 21 21 21 20 20 20 20 20 19 19 19 19 19 19 18 18 18 18 17 17 17 17 17
Wind_Speed
10 11 9 5 4 1 9 12 13 13 12 11 11 12 15 14 10 8 5 7 9 11 12 12 12 12 12 12 12 12 12 13 12 12 13 14 14 14 15 15 16 16 16 16 15 15 14 13 12
9 10 7 4 2 5 11 11 12 12 10 9 12 14 15 14 12 8 6 7 10 12 12 12 12 12 12 11 11 11 12 12 12 12 13 13 14 14 15 15 15 16 16 15 16 14 13 12 12
10 11 5 3 3 9 11 11 10 11 9 9 11 13 11 9 10 7 7 8 11 12 13 13 11 11 11 11 11 11 11 12 12 12 13 13 13 13 14 14 14 15 15 14 14 14 13 12 11
7 5 4 1 10 13 12 10 9 10 11 10 11 11 11 10 8 8 9 10 12 11 12 12 11 11 12 11 11 11 11 11 12 12 12 12 13 13 13 13 13 13 14 14 13 13 12 11 9
7 4 2 5 12 12 11 10 10 11 11 12 14 14 13 11 10 11 10 11 11 11 12 12 13 13 12 12 11 11 11 11 11 12 12 12 12 12 12 12 11 11 12 13 13 13 11 10 8
4 3 2 7 11 10 10 10 11 13 12 12 14 14 11 10 10 10 11 10 10 11 12 12 14 14 12 11 11 11 11 11 11 11 12 11 11 11 11 10 10 10 10 11 12 12 10 9 7
6 2 4 8 10 10 10 10 11 11 11 10 11 12 10 9 9 10 11 10 10 11 11 10 12 12 12 11 11 11 11 11 11 11 11 11 11 11 11 9 9 9 10 11 11 11 10 8 7
5 2 5 8 9 9 9 10 11 11 11 10 9 9 10 10 9 10 11 11 9 9 9 9 11 11 11 11 11 11 11 11 10 10 11 11 11 11 11 10 10 10 11 11 11 11 10 9 8
4 1 5 8 7 7 9 10 10 10 11 12 13 14 14 13 10 10 10 10 8 8 7 8 8 9 9 10 12 11 11 11 10 10 10 10 9 10 10 10 11 11 11 11 11 11 11 10 9
2 3 7 8 7 8 9 9 8 9 12 14 14 15 15 13 10 10 10 10 9 8 7 6 7 7 7 8 9 8 8 9 8 7 7 7 7 7 9 11 12 11 11 11 11 11 10 9 7
3 5 7 8 8 7 8 8 8 9 10 13 14 14 14 13 10 10 9 10 9 9 7 7 7 7 6 5 6 5 6 7 7 6 6 7 6 7 7 8 9 9 10 8 9 9 8 6 4
4 4 5 7 7 6 7 8 9 10 11 13 14 14 13 12 10 9 9 10 10 8 8 7 8 7 6 5 4 4 4 4 5 7 6 5 3 3 4 3 5 5 5 5 5 4 4 4 3
2 4 4 5 6 6 7 8 10 12 13 13 14 13 12 11 11 10 10 10 10 9 8 8 8 7 5 3 1 4 4 4 5 4 4 4 4 3 3 2 3 3 3 4 3 3 3 3 3
1 1 2 4 5 5 6 7 9 11 12 12 12 12 12 11 11 10 10 10 9 8 8 8 8 7 4 2 2 2 4 4 5 5 4 4 5 4 3 2 1 2 2 3 3 3 3 2 2
2 2 2 3 4 5 5 5 9 11 12 11 10 10 11 11 11 11 10 9 10 9 8 6 8 7 4 2 1 3 3 4 4 5 5 4 5 4 2 2 1 2 2 2 2 2 2 2 2
7 5 4 4 4 5 4 4 10 11 11 11 10 10 10 11 11 11 11 9 9 9 7 5 6 7 5 2 1 2 2 3 3 4 4 3 4 3 2 1 1 2 3 2 2 2 2 2 2
6 5 4 4 4 3 3 6 10 10 10 10 10 10 11 11 11 11 12 11 10 8 7 5 4 6 4 3 2 2 3 2 2 3 3 3 3 3 1 1 1 2 1 1 1 2 1 1 1
4 4 2 2 3 3 3 6 11 10 10 10 10 10 11 12 12 13 12 12 11 9 8 6 5 5 4 3 2 1 2 2 2 3 3 3 2 2 1 2 2 1 1 1 1 1 0 1 1
6 6 4 0 1 2 3 6 9 10 10 11 11 11 11 12 13 13 13 13 12 10 8 7 6 5 3 2 2 2 2 2 2 3 4 3 2 1 1 1 1 1 2 1 1 0 1 2 1
8 7 5 2 1 3 2 3 8 10 9 10 11 12 12 13 14 13 13 12 12 11 9 8 7 6 5 3 2 2 2 2 2 2 3 3 3 2 2 1 0 1 1 1 1 1 1 2 2
8 7 6 5 6 5 3 4 6 10 10 11 12 12 13 14 15 15 13 12 12 11 11 9 7 6 6 5 3 2 2 1 1 3 2 2 2 2 1 2 1 1 1 1 1 1 2 2 2
9 7 7 7 8 5 5 5 7 9 11 12 12 13 13 14 15 15 14 13 12 12 11 9 8 6 6 5 4 4 4 3 3 3 3 3 2 2 2 2 2 1 0 1 2 1 2 2 2
9 8 9 9 9 10 8 5 5 9 11 11 11 12 13 15 15 15 15 13 12 12 11 10 8 7 6 5 5 3 3 3 2 3 3 3 3 2 1 2 2 1 1 1 1 0 1 1 1
10 10 9 10 9 11 8 5 4 5 7 10 10 9 11 13 14 14 14 12 11 11 10 11 9 7 6 6 5 4 3 2 2 2 3 4 3 2 2 2 1 1 1 1 1 1 2 1 1
11 9 6 7 7 8 6 4 2 5 5 7 10 10 10 12 12 14 14 14 11 11 11 10 10 8 7 6 5 5 4 4 4 3 4 3 2 2 2 2 1 1 1 1 1 2 2 2 2
11 11 9 7 7 6 5 4 4 6 6 7 8 10 11 11 11 12 13 13 12 11 11 10 10 9 8 7 6 5 5 4 3 4 3 2 2 2 2 2 2 2 1 2 1 2 3 2 2
11 10 10 9 10 9 5 2 5 6 7 8 9 10 11 11 12 12 12 12 11 10 9 10 10 9 9 8 6 5 5 4 3 3 3 2 2 2 2 2 2 2 2 2 1 2 2 2 2
14 12 9 8 6 8 7 4 3 5 5 5 7 8 9 10 11 10 10 11 11 11 9 9 9 9 8 8 8 7 6 5 4 3 4 3 2 1 2 2 2 2 2 2 3 2 2 2 2
11 12 9 7 7 8 7 3 2 5 6 5 6 7 8 8 10 11 10 10 10 10 10 10 9 9 8 8 7 6 6 6 5 5 4 3 3 3 3 3 3 3 2 2 2 3 3 2 2
12 11 11 8 7 8 7 4 2 4 6 6 6 6 7 8 8 9 9 9 9 9 9 9 8 9 8 7 7 6 5 5 5 5 5 4 4 4 3 3 3 3 2 2 3 4 3 3 3
Wind_Direction
200 213 221 245 261 243 59 59 62 59 58 57 55 58 58 51 54 82 82 75 89 94 92 91 87 89 90 89 90 89 90 93 95 99 103 106 109 110 110 112 116 119 121 121 120 120 121 121 119
225 228 232 249 260 65 63 62 62 64 69 72 68 65 65 62 69 87 87 84 87 93 91 88 90 91 91 92 92 91 92 94 97 99 103 108 111 113 115 116 118 121 123 124 125 123 122 124 124
242 247 258 247 50 66 67 67 69 78 78 75 74 64 57 65 72 90 104 100 90 89 92 93 94 97 97 95 94 94 96 97 100 103 104 109 112 112 114 116 119 123 125 125 125 123 124 127 130
245 244 251 293 67 68 71 70 70 78 78 70 77 75 66 65 87 103 107 102 95 94 94 95 95 103 103 100 99 98 99 102 105 106 106 109 111 113 115 117 120 125 127 129 129 129 130 131 137
247 269 246 74 72 76 75 71 76 77 75 77 82 87 82 81 94 101 101 98 98 98 96 99 100 104 104 102 104 105 105 108 110 112 113 115 117 118 118 120 123 130 134 136 137 137 137 137 145
259 256 83 81 78 76 77 74 75 80 84 88 94 95 92 98 97 100 101 98 100 103 102 106 105 106 105 104 107 109 113 116 117 118 118 118 120 122 121 123 128 134 138 141 141 140 143 147 154
254 302 69 86 84 77 75 75 72 81 82 82 94 99 103 103 104 105 103 99 100 106 113 116 117 115 111 108 112 116 121 124 125 126 128 128 128 126 124 129 136 141 144 145 144 146 149 155 164
248 318 59 76 77 79 79 80 83 83 81 90 93 103 116 122 122 111 104 102 97 99 110 119 123 128 127 123 125 128 130 132 135 137 138 137 134 136 138 137 139 143 146 149 152 155 161 166 176
248 331 68 70 81 89 89 87 92 95 89 79 83 102 118 126 122 115 108 105 101 97 98 106 120 126 128 126 130 138 139 143 145 145 151 153 151 146 145 142 148 152 156 160 163 166 172 178 188
138 90 78 81 88 92 91 94 101 103 99 97 96 107 121 125 125 118 115 115 113 108 106 106 107 105 113 118 130 142 135 139 144 140 148 154 152 144 144 150 159 163 168 172 177 179 181 188 193
81 70 76 87 87 88 95 95 93 94 102 115 123 126 130 131 129 121 119 117 112 112 105 100 99 95 99 106 120 123 125 132 132 133 141 144 146 146 149 157 163 170 173 177 173 184 194 189 188
74 78 76 84 88 87 85 83 86 89 99 115 126 133 136 134 129 127 124 118 115 112 109 101 89 80 68 78 99 124 118 125 127 141 145 132 130 138 142 152 155 164 165 167 167 182 174 157 176
66 81 84 98 97 92 93 91 89 93 107 119 129 134 137 138 134 127 123 123 121 119 109 102 94 85 73 58 60 100 101 112 114 115 106 118 109 98 116 125 154 150 155 159 157 170 152 164 177
30 86 119 115 123 123 110 110 110 114 120 124 131 138 140 139 136 133 134 129 124 120 115 115 115 109 102 90 60 86 102 109 106 110 107 97 106 102 112 120 115 135 135 129 161 165 163 172 182
279 232 212 172 158 130 116 114 117 134 136 136 140 139 142 145 142 142 140 137 133 126 123 125 129 122 123 111 107 103 115 110 107 114 113 101 105 113 121 120 136 116 122 154 168 150 162 173 173
253 235 216 188 167 155 172 140 135 148 148 146 147 146 147 148 148 146 144 141 134 133 128 141 139 130 138 133 74 92 98 103 108 116 116 112 114 129 113 120 111 143 162 167 153 167 175 174 181
251 243 213 186 172 178 188 153 152 161 158 155 154 153 155 155 153 148 152 146 140 136 135 141 125 131 141 139 128 101 97 87 109 117 121 136 137 133 138 123 108 190 139 136 162 120 164 195 190
288 280 251 199 168 194 177 155 155 168 167 164 165 164 164 165 161 156 156 148 147 144 142 147 147 144 147 142 143 142 132 137 141 128 127 124 133 137 153 127 122 137 92 83 74 77 142 216 229
270 278 285 218 170 208 188 171 164 176 176 170 173 173 173 169 163 160 160 158 155 151 153 156 159 150 160 166 174 184 165 174 158 145 141 143 152 128 96 59 128 106 97 97 101 173 236 229 192
260 267 270 223 211 248 238 209 177 179 183 179 178 175 173 166 161 161 164 164 161 158 159 160 168 168 178 179 186 195 173 175 150 128 134 147 153 174 152 119 203 122 148 163 188 204 237 247 195
262 272 279 288 272 257 266 245 200 186 179 181 182 177 175 171 167 167 169 168 166 165 169 175 170 171 179 190 193 190 173 174 146 142 137 154 168 160 134 135 159 185 167 154 224 213 238 248 235
260 270 270 262 274 271 228 243 208 191 181 185 184 179 178 174 170 169 173 174 172 172 171 165 165 173 178 194 204 203 183 181 179 160 155 169 181 172 166 158 168 218 150 154 239 179 256 238 254
269 276 274 272 272 273 247 242 205 188 186 185 188 183 178 175 173 171 174 175 175 174 171 164 162 172 180 194 199 209 203 191 175 164 164 173 179 185 173 173 184 189 177 198 255 247 269 259 270
259 269 274 271 263 262 258 254 203 195 180 177 180 181 173 167 169 167 169 167 173 173 171 164 162 171 180 193 196 199 203 204 192 193 185 196 187 185 185 186 181 201 185 211 224 248 245 272 292
248 257 264 266 253 250 243 246 199 144 157 170 173 170 163 163 165 166 167 169 173 175 174 167 166 173 183 191 197 196 202 207 202 217 216 218 195 182 198 167 152 203 199 207 203 218 246 254 268
244 246 252 260 276 284 255 229 169 149 162 147 145 152 161 165 164 166 167 169 174 178 174 169 169 175 182 189 192 197 204 213 208 217 231 211 218 188 169 156 160 195 211 216 208 228 217 222 238
247 244 252 257 270 276 266 229 156 151 151 141 141 148 159 166 170 167 166 168 170 175 175 172 168 173 182 187 187 191 197 218 219 204 216 222 215 205 158 165 175 188 201 231 229 242 250 228 229
244 255 255 248 263 271 268 250 196 143 136 134 140 143 151 165 166 160 166 169 170 175 175 172 171 173 178 184 192 197 198 208 208 211 217 216 208 192 162 177 190 203 206 218 231 239 236 227 222
233 245 259 272 263 263 273 279 147 146 145 143 142 145 161 171 168 164 167 166 168 172 175 177 172 175 182 188 191 194 188 198 203 208 219 214 201 197 196 195 201 211 214 224 232 236 243 231 232
242 240 247 255 263 271 266 256 134 124 138 140 139 151 167 166 161 163 160 161 166 173 176 175 177 182 187 188 186 191 189 193 199 206 205 202 202 209 209 203 213 221 213 220 232 243 234 232 234
Height
1487 1488 1489 1492 1491 1489 1484 1477 1475 1477 1478 1481 1482 1483 1486 1490 1495 1506 1506 1504 1504 1503 1502 1501 1501 1501 1501 1502 1504 1505 1505 1506 1507 1508 1510 1511 1513 1514 1516 1517 1519 1521 1523 1525 1528 1530 1532 1534 1536
1488 1490 1493 1492 1490 1492 1488 1478 1478 1479 1481 1482 1484 1486 1489 1495 1499 1504 1505 1506 1505 1504 1503 1502 1502 1502 1503 1504 1505 1506 1507 1508 1509 1511 1512 1513 1515 1517 1518 1520 1522 1524 1525 1528 1530 1532 1534 1536 1537
1488 1491 1492 1487 1484 1487 1487 1479 1478 1479 1482 1483 1486 1490 1495 1500 1503 1505 1507 1507 1506 1505 1505 1503 1502 1503 1504 1506 1507 1508 1509 1510 1511 1512 1514 1515 1517 1519 1521 1523 1524 1526 1528 1530 1532 1534 1536 1537 1539
1490 1491 1489 1484 1483 1478 1478 1478 1478 1479 1482 1484 1487 1494 1500 1504 1505 1507 1507 1508 1508 1507 1506 1504 1502 1502 1505 1507 1508 1509 1510 1512 1513 1514 1516 1517 1519 1521 1523 1525 1526 1528 1530 1532 1534 1535 1537 1539 1541
1492 1490 1488 1486 1481 1477 1476 1477 1479 1481 1484 1487 1491 1498 1504 1507 1508 1508 1509 1509 1509 1509 1508 1506 1503 1504 1506 1508 1509 1510 1511 1513 1515 1516 1518 1519 1521 1523 1525 1526 1528 1530 1531 1533 1535 1537 1539 1540 1542
1491 1485 1490 1491 1484 1478 1477 1479 1480 1483 1487 1489 1493 1499 1506 1509 1509 1510 1511 1511 1511 1511 1510 1509 1507 1508 1509 1509 1510 1511 1513 1515 1517 1518 1520 1521 1523 1525 1527 1528 1530 1531 1533 1535 1536 1538 1540 1541 1543
1489 1485 1487 1485 1485 1482 1480 1480 1482 1485 1488 1491 1494 1500 1507 1510 1511 1512 1513 1513 1513 1513 1512 1511 1511 1511 1511 1512 1512 1513 1515 1516 1519 1520 1522 1524 1525 1527 1528 1530 1531 1533 1534 1536 1538 1540 1541 1543 1544
1484 1481 1484 1482 1485 1485 1481 1482 1485 1487 1490 1493 1496 1500 1507 1511 1512 1513 1514 1515 1515 1515 1515 1515 1514 1514 1514 1514 1515 1516 1517 1519 1521 1523 1524 1526 1527 1529 1530 1532 1533 1534 1536 1537 1539 1541 1542 1543 1545
1480 1484 1488 1484 1484 1483 1481 1483 1486 1489 1492 1495 1498 1502 1507 1511 1513 1514 1516 1516 1517 1518 1518 1518 1518 1518 1518 1518 1518 1519 1520 1521 1523 1525 1526 1528 1529 1531 1532 1534 1535 1536 1538 1539 1541 1542 1543 1545 1546
1478 1485 1482 1478 1479 1479 1481 1483 1485 1488 1493 1498 1502 1506 1509 1512 1513 1515 1516 1518 1519 1520 1520 1521 1521 1521 1521 1521 1521 1522 1524 1524 1525 1527 1528 1530 1531 1533 1534 1535 1536 1538 1539 1540 1542 1543 1544 1545 1547
1476 1479 1476 1476 1478 1480 1481 1483 1485 1488 1493 1498 1503 1507 1510 1512 1514 1516 1517 1519 1520 1521 1522 1523 1523 1523 1523 1524 1525 1525 1526 1527 1528 1529 1530 1531 1532 1533 1535 1536 1537 1538 1540 1541 1543 1544 1545 1546 1547
1477 1476 1476 1478 1479 1480 1482 1484 1486 1489 1495 1499 1503 1507 1510 1513 1515 1517 1519 1520 1522 1523 1524 1525 1525 1525 1525 1526 1527 1528 1529 1529 1531 1531 1532 1533 1533 1534 1535 1536 1537 1539 1540 1541 1543 1544 1545 1547 1548
1477 1477 1477 1478 1480 1482 1484 1486 1489 1492 1497 1500 1504 1507 1510 1513 1515 1518 1520 1521 1523 1524 1525 1526 1526 1527 1527 1528 1529 1530 1531 1532 1533 1533 1534 1534 1534 1534 1535 1536 1538 1539 1541 1542 1543 1544 1545 1547 1547
1478 1477 1477 1478 1480 1481 1483 1486 1489 1495 1498 1501 1505 1508 1510 1513 1516 1518 1520 1522 1524 1525 1526 1527 1528 1528 1529 1530 1531 1532 1533 1534 1534 1535 1535 1536 1536 1536 1536 1537 1539 1540 1541 1542 1543 1544 1545 1546 1548
1478 1478 1478 1477 1478 1480 1484 1488 1490 1495 1498 1501 1504 1508 1511 1513 1516 1518 1521 1523 1524 1526 1527 1528 1529 1529 1530 1531 1532 1534 1535 1535 1535 1536 1537 1537 1537 1538 1538 1539 1540 1541 1542 1542 1543 1544 1545 1546 1547
1478 1480 1485 1477 1475 1478 1485 1495 1490 1493 1496 1500 1503 1507 1510 1513 1516 1518 1520 1523 1525 1526 1527 1528 1530 1530 1531 1532 1533 1535 1536 1536 1537 1537 1537 1538 1539 1539 1540 1541 1541 1542 1542 1543 1543 1544 1545 1546 1547
1484 1487 1486 1479 1473 1474 1480 1489 1488 1491 1494 1498 1502 1505 1509 1512 1515 1518 1520 1522 1524 1526 1527 1529 1530 1531 1532 1533 1534 1535 1536 1537 1538 1538 1538 1539 1539 1540 1540 1541 1541 1542 1543 1543 1544 1544 1545 1545 1546
1490 1484 1482 1480 1472 1474 1479 1483 1484 1488 1491 1495 1500 1503 1507 1511 1514 1517 1519 1522 1524 1526 1527 1529 1530 1531 1533 1534 1535 1536 1537 1537 1538 1538 1538 1539 1540 1540 1541 1541 1542 1542 1543 1543 1543 1544 1545 1545 1546
1477 1480 1481 1476 1470 1473 1477 1480 1481 1485 1488 1492 1497 1500 1504 1508 1512 1515 1519 1521 1523 1525 1527 1528 1530 1531 1532 1534 1535 1536 1537 1538 1538 1539 1539 1539 1540 1540 1541 1541 1542 1542 1542 1543 1543 1543 1544 1545 1545
1475 1478 1478 1472 1468 1472 1477 1479 1477 1480 1484 1489 1493 1497 1501 1506 1510 1514 1517 1520 1522 1524 1526 1528 1529 1530 1532 1533 1534 1536 1537 1537 1538 1538 1538 1539 1539 1540 1541 1541 1541 1541 1542 1542 1543 1543 1543 1544 1545
1475 1477 1477 1477 1472 1470 1478 1486 1479 1478 1481 1486 1490 1494 1498 1502 1507 1511 1515 1518 1521 1523 1524 1527 1528 1530 1531 1532 1534 1536 1536 1537 1538 1538 1538 1539 1539 1539 1540 1540 1540 1541 1541 1541 1542 1542 1542 1543 1543
1477 1469 1470 1474 1479 1483 1482 1500 1483 1477 1479 1482 1485 1490 1494 1499 1504 1508 1512 1516 1519 1521 1523 1525 1527 1529 1530 1532 1533 1535 1535 1536 1537 1537 1538 1538 1539 1539 1539 1539 1540 1540 1540 1540 1540 1540 1541 1541 1542
1470 1466 1467 1469 1476 1482 1476 1487 1484 1473 1478 1479 1481 1485 1490 1495 1500 1505 1509 1513 1517 1520 1522 1523 1525 1527 1529 1530 1532 1533 1535 1536 1537 1537 1537 1538 1538 1538 1538 1538 1538 1538 1538 1539 1539 1539 1539 1539 1539
1464 1467 1469 1471 1477 1494 1479 1484 1486 1473 1473 1474 1478 1482 1486 1492 1497 1502 1507 1511 1515 1518 1521 1522 1524 1525 1527 1529 1531 1532 1533 1534 1535 1536 1536 1536 1537 1537 1537 1537 1537 1537 1537 1537 1537 1537 1538 1538 1538
1465 1479 1496 1501 1502 1495 1472 1479 1479 1465 1465 1469 1473 1479 1484 1490 1495 1500 1504 1509 1512 1515 1518 1520 1522 1523 1525 1527 1529 1530 1531 1532 1533 1534 1535 1535 1536 1536 1535 1535 1535 1535 1535 1535 1536 1536 1536 1536 1536
1467 1475 1499 1514 1511 1495 1477 1480 1470 1459 1463 1467 1472 1477 1483 1489 1493 1498 1502 1506 1510 1513 1516 1518 1520 1521 1524 1525 1527 1528 1529 1530 1531 1532 1533 1534 1534 1534 1534 1534 1534 1534 1534 1534 1534 1534 1534 1534 1534
1468 1472 1470 1487 1495 1501 1488 1477 1465 1459 1462 1466 1472 1477 1483 1488 1492 1496 1500 1504 1507 1511 1514 1516 1518 1519 1521 1523 1524 1526 1527 1528 1530 1530 1531 1532 1532 1533 1532 1532 1532 1532 1532 1532 1532 1531 1531 1531 1532
1459 1462 1471 1484 1506 1512 1497 1484 1478 1468 1468 1468 1472 1477 1482 1487 1490 1494 1499 1502 1505 1508 1511 1514 1516 1517 1519 1521 1522 1524 1525 1526 1527 1528 1529 1530 1530 1530 1530 1530 1530 1530 1530 1529 1529 1529 1529 1529 1529
1462 1464 1467 1473 1481 1501 1507 1492 1463 1465 1466 1469 1473 1477 1481 1486 1489 1493 1496 1500 1503 1506 1509 1512 1514 1515 1517 1518 1520 1521 1522 1524 1525 1525 1526 1527 1527 1528 1528 1528 1528 1528 1527 1527 1527 1526 1526 1526 1526
1455 1461 1466 1482 1488 1486 1494 1488 1459 1461 1465 1469 1472 1478 1482 1484 1487 1491 1494 1498 1501 1504 1507 1509 1511 1513 1514 1516 1517 1519 1520 1521 1522 1523 1523 1524 1525 1525 1526 1526 1526 1526 1525 1525 1524 1523 1523 1524 1524